Volver al catálogo

STARLINK-36943

ActivoComunicacionesSSO
NORAD 68035·PAYLOAD·🇺🇸 United States

Lanzado Mar 1, 2026 desde Vandenberg Space Force Base

Loading…

Próximos Pases (próximas 24 horas)

TLE

ActualizadoSource: CelesTrak SupGP

Época: Sep 14, 2026, 22:41 UTC

1 68035C 26040W   26257.94562500 -.00057847  00000+0 -17959-2 0  2579
2 68035  97.2853 205.4192 0001832  85.7846 149.6126 15.33464039    11

Sigue STARLINK-36943 en tiempo real con AllMySat

Download on the App Store